Weather History for Spirit of St Louis, MO

Change the Weather History Date:

Friday, January 11, 2013

  Actual Average Record
Temperature  
Mean Temperature 57 °F -  
Max Temperature 64 °F 37 °F - (-1)
Min Temperature 50 °F 19 °F - (-1)
Degree Days  
Heating Degree Days 8    
Growing Degree Days 7 (Base 50)    
Moisture  
Dew Point 46 °F    
Average Humidity 72    
Maximum Humidity 89    
Minimum Humidity 52    
Precipitation  
Precipitation 0.00 in - - ()
Sea Level Pressure  
Sea Level Pressure 29.81 in    
Wind  
Wind Speed 9 mph (SSW)    
Max Wind Speed 15 mph    
Max Gust Speed 23 mph    
Visibility 10 miles    
Events      
Averages and records for this station are not official NWS values.
T = Trace of Precipitation, MM = Missing Value Source: NWS Daily Summary

Daily Weather History Graph

Daily Weather History Graph

Search for Another Location

Airport:

Trip Planner

Search our weather history database for the weather conditions in past years. The results will help you decide how hot, cold, wet, or windy it might be!

Date:

Astronomy

Jan. 11, 2013 Rise Set
Actual Time 7:20 AM CST 5:01 PM CST
Civil Twilight 6:50 AM CST 5:30 PM CST
Nautical Twilight 6:18 AM CST 6:03 PM CST
Astronomical Twilight 5:46 AM CST 6:35 PM CST
Moon 6:53 AM CST (1/11) 5:18 PM CST (1/11)
Length of Visible Light 10h 39m
Length of Day
9h 41m
Waning Crescent, 0% of the Moon is Illuminated
Jan 11
Waning Crescent
Jan 11
New
Jan 18
First Quarter
Jan 26
Full
Feb 3
Last Quarter

Hourly Weather History & Observations

Time (CST) Temp. Dew Point Humidity Pressure Visibility Wind Dir Wind Speed Gust Speed Precip Events Conditions
12:54 AM 50.0 °F 46.9 °F 89% 29.79 in 10.0 mi WSW 9.2 mph - N/A   Clear
1:54 AM 53.1 °F 50.0 °F 89% 29.80 in 10.0 mi SW 5.8 mph - N/A   Mostly Cloudy
2:54 AM 51.1 °F 48.0 °F 89% 29.83 in 10.0 mi WSW 5.8 mph - N/A   Overcast
3:54 AM 51.1 °F 46.9 °F 86% 29.82 in 10.0 mi SW 8.1 mph - N/A   Clear
4:54 AM 52.0 °F 46.0 °F 80% 29.82 in 10.0 mi SW 13.8 mph 21.9 mph N/A   Partly Cloudy
5:15 AM 51.8 °F 46.4 °F 82% 29.82 in 10.0 mi SW 10.4 mph - N/A   Mostly Cloudy
5:54 AM 52.0 °F 46.0 °F 80% 29.83 in 10.0 mi SSW 10.4 mph - N/A   Overcast
6:54 AM 51.8 °F 46.4 °F 82% 29.85 in 10.0 mi SSW 8.1 mph - N/A   Overcast
7:54 AM 51.1 °F 46.0 °F 83% 29.87 in 10.0 mi SSW 9.2 mph - N/A   Mostly Cloudy
8:06 AM 51.8 °F 46.4 °F 82% 29.87 in 10.0 mi SSW 10.4 mph - N/A   Mostly Cloudy
8:34 AM 53.6 °F 46.4 °F 77% 29.87 in 10.0 mi SSW 11.5 mph - N/A   Scattered Clouds
8:54 AM 53.1 °F 46.0 °F 77% 29.87 in 10.0 mi SSW 8.1 mph - N/A   Overcast
9:54 AM 54.0 °F 46.0 °F 75% 29.86 in 10.0 mi SSW 9.2 mph - N/A   Mostly Cloudy
10:54 AM 55.0 °F 46.0 °F 72% 29.84 in 10.0 mi South 6.9 mph - N/A   Mostly Cloudy
11:54 AM 59.0 °F 46.9 °F 64% 29.81 in 10.0 mi South 6.9 mph - N/A   Clear
12:54 PM 63.0 °F 46.9 °F 56% 29.79 in 10.0 mi South 6.9 mph - N/A   Clear
1:54 PM 63.0 °F 46.0 °F 54% 29.78 in 10.0 mi SSW 15.0 mph 23.0 mph N/A   Mostly Cloudy
2:54 PM 64.0 °F 46.0 °F 52% 29.78 in 10.0 mi South 11.5 mph 18.4 mph N/A   Mostly Cloudy
3:54 PM 63.0 °F 45.0 °F 52% 29.76 in 10.0 mi South 10.4 mph - N/A   Mostly Cloudy
4:54 PM 62.1 °F 45.0 °F 53% 29.77 in 10.0 mi South 9.2 mph - N/A   Clear
5:54 PM 60.1 °F 45.0 °F 57% 29.78 in 10.0 mi SSE 6.9 mph - N/A   Clear
6:54 PM 57.9 °F 46.0 °F 65% 29.79 in 10.0 mi Variable 6.9 mph - N/A   Clear
7:54 PM 57.0 °F 46.9 °F 69% 29.79 in 10.0 mi South 9.2 mph - N/A   Clear
8:54 PM 57.0 °F 46.9 °F 69% 29.79 in 10.0 mi Variable 5.8 mph - N/A   Clear
9:54 PM 57.0 °F 46.9 °F 69% 29.80 in 10.0 mi SSW 4.6 mph - N/A   Clear
10:54 PM 57.9 °F 46.9 °F 67% 29.81 in 10.0 mi SW 3.5 mph - N/A   Clear
11:54 PM 57.0 °F 46.0 °F 67% 29.81 in 10.0 mi SSW 5.8 mph - N/A   Clear